Location: Newark
(40.9464°N, 15.0486°E)
Time: 23:35:17
(UTC+00:00)

N. Korean satellite - Visible Passes

Search period start: 21 January 2021 00:00
Search period end: 31 January 2021 00:00
Orbit: 452 x 502 km, 97.2° (Epoch: 21 January)

Date Brightness Start Highest point End Pass type
(mag) Time Alt. Az. Time Alt. Az. Time Alt. Az.
21 Jan 9.8 03:28:02 10° ENE 03:29:38 13° E 03:31:12 10° ESE visible
21 Jan 7.1 04:59:55 10° N 05:03:05 33° WNW 05:06:13 10° SW visible
22 Jan 6.3 04:33:06 10° N 04:36:36 80° WNW 04:40:01 10° SSW visible
22 Jan 9.9 16:42:18 10° SW 16:44:24 15° W 16:46:30 10° WNW visible
23 Jan 7.7 04:06:41 10° NNE 04:10:00 41° E 04:13:15 10° S visible
23 Jan 8.4 05:41:49 10° NW 05:42:54 11° WNW 05:43:59 10° W visible
24 Jan 9.2 03:40:47 10° NE 03:43:17 19° E 03:45:46 10° SE visible
24 Jan 7.6 05:13:48 10° NNW 05:16:34 23° WNW 05:19:18 10° WSW visible
25 Jan 6.5 04:46:45 10° N 04:50:07 50° WNW 04:53:25 10° SSW visible
26 Jan 6.7 04:20:07 10° NNE 04:23:34 66° E 04:26:56 10° S visible
27 Jan 8.5 03:53:54 10° NE 03:56:54 27° E 03:59:51 10° SSE visible
27 Jan 8.1 05:27:51 10° NNW 05:29:58 16° WNW 05:32:05 10° WSW visible
28 Jan 9.8 03:28:32 10° ENE 03:30:08 13° E 03:31:44 10° ESE visible
28 Jan 7.1 05:00:28 10° N 05:03:34 32° WNW 05:06:39 10° SW visible
29 Jan 6.2 04:33:37 10° N 04:37:04 78° WNW 04:40:27 10° SSW visible
29 Jan 9.9 16:42:58 10° SW 16:44:56 14° W 16:46:53 10° WNW visible
30 Jan 7.7 04:07:10 10° NNE 04:10:27 42° E 04:13:41 10° S visible
30 Jan 8.5 05:42:29 10° NW 05:43:21 11° WNW 05:44:12 10° W visible
